Location: Bergheim
(50.9593°N, 6.6400°E)
Time: 10:07:11
(UTC+02:00)

ISS - Pass Details

Date: 18 May 2021
Orbit: 417 x 422 km, 51.6° (Epoch: 13 June)

Event Time Altitude Azimuth Distance (km) Brightness Sun altitude
Rises 02:52:54 0° 285° (WNW) 2,372 0.0 -17.2°
Reaches altitude 10° 02:55:05 10° 278° (W) 1,507 -1.1 -17.0°
Enters shadow 02:55:42 14° 273° (W) 1,274 -1.5 -17.0°
